Location: Hawks Ness
(60.2333°N, 1.1667°W)
Time: 06:05:05
(UTC+00:00)

Cosmos 2251 Rocket - Pass Details

Date: 22 October 2019
Orbit: 765 x 792 km, 74.0° (Epoch: 18 November)

Event Time Altitude Azimuth Distance (km) Brightness Sun altitude
Exits shadow 04:49:19 28° 268° (W) 1,444 4.3 -16.9°
Maximum altitude 04:51:32 42° 318° (NW) 1,123 4.1 -16.6°
Drops below altitude 10° 04:56:40 10° 29° (NNE) 2,369 6.5 -16.0°
Sets 04:59:12 0° 37° (NE) 3,298 7.4 -15.7°
